CZ-6A DEB

Satellite information

Favourite Embed

Satellite Type and Status

DEBRISIN ORBIT

Key statistics

Satellite CZ-6A DEB at a glance.

Uptime

1029

Days in orbit

Revolutions

≈ 14.3

Per day

Orbit

SSO

Sun Synchronous Orbit

Inclination

98.6

Latest

Satellite identification and parameters

Extended collection of information and parameters for CZ-6A DEB.

Object identification

Identified? True

Debris? True

Object name: CZ-6A DEB

International designator: 2022-151W

Object number (NORAD): 54279

Object ID (CCSDS): 54279

Country: PEOPLES REPUBLIC OF CHINA (PRC)

Current information (Y/N): Y

RCS size: SMALL

Orbital parameters

Period: 100.623 minutes

Inclination: 98.6261 deg

SMA: 7166.26 km

Apoapsis: 887.769 km

Periapsis: 688.48 km

RAAN: 258.4355 deg

Eccentricy: 0.01390472

Argument of periapsis: 192.5998 deg

Mean anomaly: 167.1697 deg

Mean motion: 14.31080148 rev/day

Mean motion (dot): 0.00000879 rev/day2

B* drag term: 0.00031606974 1/REarth

Two-line elements (TLE)

Creation date: Sept. 4, 2025, 10:13 a.m.

Reference frame: TEME

Reference center: EARTH

Epoch: Sept. 3, 2025, 11:05 p.m. UTC

TLE line 0: 0 CZ-6A DEB

TLE line 1: 1 54279U 22151W 25246.96233034 .00000879 00000-0 31607-3 0 9991

TLE line 2: 2 54279 98.6261 258.4355 0139047 192.5998 167.1697 14.31080148146165

Live tracking on map

Real-time ground track for satellite CZ-6A DEB.

In-orbit conjunctions

A list of the most updated potential collisions computed for object CZ-6A DEB.

Target Orbit TCA Probability of collision Miss distance Type
OAO 2 LEO 2024-11-27 11:12:58 0.0001362824 89.0 (m) PAYLOAD
CZ-4 DEB SSO 2024-11-11 14:34:22 0.0001406706 990.0 (m) DEBRIS

Associated space launch

Chinese satellite reported for atmospheric/ocean/environmental/spatial parameter research purposes, details TBD.

CZ-6A DEB was lifted into orbit during the mission ‘Long March 6A | Yunhai 3’, on board a Long March 6A space rocket.

The launch took place on Nov. 11, 2022, 10:52 p.m. from Launch Complex 9A.

For more information about the launch, click the button.

Launch to space Long March 6A | Yunhai 3
Long March 6A | Yunhai 3

Agency: N/A

Status: Launch Successful

Launch date: Nov. 11, 2022, 10:52 p.m. UTC

Rocket: Long March 6A

Launch pad: Launch Complex 9A

Location: Taiyuan Satellite Launch Center, People's Republic of China

...

Latest news about this satellite

There are no fresh news available about this satellite. Check back as we update our databases every day.


Newsletter sign-up

Weekly statistics, charts and insights to help you stay on top of the space industry.